Regional Weather Roundup
Issued by NWS New Orleans/Baton Rouge, LA

Home | Current Version | Previous Version | Text Only | Print | Product List | Glossary On
Versions: 1 2 3 4 5 6 7 8 9 10 11 12 13 14 15 16 17 18 19 20 21 22 23 24 25 26 27
000
ASUS44 KLIX 221312
RWRLIX
NEW ORLEANS REGIONAL WEATHER ROUNDUP
NATIONAL WEATHER SERVICE NEW ORLEANS LA
700 AM CST SUN JAN 22 2017

NOTE: "FAIR" INDICATES FEW OR NO CLOUDS BELOW 12,000 FEET WITH NO
      SIGNIFICANT WEATHER AND/OR OBSTRUCTIONS TO VISIBILITY.
      SKY/WX - SKY CONDITION AND SIGNIFICANT WEATHER.
      TMP - AIR TEMPERATURE.     DP    - DEWPOINT TEMPERATURE.
      RH  - RELATIVE HUMIDITY.   PRES  - PRESSURE.
      HI  - HEAT INDEX.          WCI   - WIND CHILL INDEX.

*  THESE STATIONS ARE NOT NWS OR FAA STATIONS AND ARE NOT UNDER
   NWS QUALITY CONTROL.

LAZ038-040-048-061>063-065>067-069-221400-
SOUTHEAST LOUISIANA

CITY           SKY/WX    TMP DP  RH WIND       PRES   REMARKS
N.O. AUDUBON   NOT AVBL
N.O. INTL ARPT CLOUDY    63  56  78 NW22G36   29.51R
N.O. LAKEFRONT CLOUDY    62  62 100 W31G37    29.50R
N.O. DOWNTOWN*   N/A     68  64  87 VRB5      29.51R FOG
RESERVE*       PTSUNNY   64  55  72 NW13G20   29.52R
SLIDELL        CLOUDY    66  65  96 NW3       29.46F FOG
BATON ROUGE    LGT RAIN  58  51  78 NW12      29.54F
BOOTHVILLE     RAIN      65  65 100 S13G18    29.46F FOG
BELLE CHASSE   CLOUDY    68  66  93 MISG      29.48F
BOGALUSA*      PTSUNNY   66  63  90 W3        29.52F
GALLIANO*      MOSUNNY   68  64  86 NW10      29.48F FOG
NEW ROADS*     RAIN      56  52  85 NW7       29.55S
GONZALES*      CLOUDY    62  50  64 NW13G25   29.52F
HAMMOND*       CLOUDY    61  54  77 NW12      29.54R
HOUMA*         CLOUDY    64  55  72 NW20G32   29.53R
PORT FOURCHON* PTSUNNY   70  68  94 NW14G21   29.47S

$$

MSZ070-080>082-221400-
SOUTHERN MISSISSIPPI

CITY           SKY/WX    TMP DP  RH WIND       PRES   REMARKS
MCCOMB         LGT RAIN  57  50  77 NW12      29.50F
GULFPORT       FOG       66  66 100 SW3       29.48F VSB 1
BILOXI         PTCLDY    66  66 100 W3        29.48F FOG
PASCAGOULA     FOG       67  65  93 S3        29.47F VSB 1/4
STENNIS ARPT*  MOCLDY    66  63  88 CALM      29.49  FOG

$$

COASTAL OBSERVATIONS
LAKE AND NEARSHORE STATIONS

STATION/POSITION TIME  TEMP    WIND        PRES    WAVE
                       AIR SEA DIR/SP/G            HT/PER
                 (UTC) (F)     (DEG/KT/KT) (MB)    (FT/S)
PASCAGOULA       1236   67     260/  5/  7  998.2
WAVELAND YACHT   1236   67 68  210/  2/  3  998.0
GRAND ISLE       1236   71 69  310/  6/  8  997.7
SOUTHWEST PASS   1248          190/ 10/ 12   N/A
NEW CANAL        1236   65 61  260/  5/  6  997.9
SHELL BEACH      1236   68 68  280/  6/  7  998.4

OFFSHORE STATIONS

STATION/POSITION TIME  TEMP    WIND        PRES    WAVE
                       AIR SEA DIR/SP/G            HT/PER
                 (UTC) (F)     (DEG/KT/KT) (MB)    (FT/S)

$$





USA.gov is the U.S. government's official web portal to all federal, state and local government web resources and services.